FW4092 Weather Reports


time (UTC)temp
C
wind
direction
speed
KPH
gust
KPH
rain 1hr
cm
rain 24hr
cm
rain mn
cm
humidity
%
barometer
mb
20260901184404 23 294 3.2 6.4 0.00 0.00 0.00 35 1007.3
20260901183901 23 13 3.2 6.4 0.00 0.00 0.00 36 1007.3
20260901183356 23 30 3.2 11.3 0.00 0.00 0.00 37 1007.2
20260901182847 23 323 3.2 11.3 0.00 0.00 0.00 36 1007.4
20260901182341 23 317 3.2 9.7 0.00 0.00 0.00 37 1007.4
20260901182110 23 62 4.8 9.7 0.00 0.00 0.00 37 1007.3
20260901181330 23 34 1.6 9.7 0.00 0.00 0.00 38 1007.3
20260901181101 23 18 1.6 8.0 0.00 0.00 0.00 38 1007.4
20260901180326 22 355 1.6 8.0 0.00 0.00 0.00 39 1007.4
20260901175827 22 349 1.6 8.0 0.00 0.00 0.00 39 1007.3
20260901175326 22 269 1.6 4.8 0.00 0.00 0.00 40 1007.4
20260901174825 22 300 3.2 8.0 0.00 0.00 0.00 40 1007.5
20260901174554 22 301 3.2 8.0 0.00 0.00 0.00 40 1007.5
20260901173822 22 27 3.2 6.4 0.00 0.00 0.00 41 1007.5
20260901173324 21 355 3.2 14.5 0.00 0.00 0.00 41 1007.5
20260901172826 21 350 1.6 14.5 0.00 0.00 0.00 41 1007.4
20260901172329 21 293 1.6 9.7 0.00 0.00 0.00 42 1007.4
20260901171832 21 275 1.6 9.7 0.00 0.00 0.00 42 1007.4
20260901171322 21 277 1.6 6.4 0.00 0.00 0.00 42 1007.4
20260901170822 21 135 1.6 6.4 0.00 0.00 0.00 42 1007.3
20260901170322 21 111 1.6 4.8 0.00 0.00 0.00 42 1007.3
20260901165822 20 112 1.6 8.0 0.00 0.00 0.00 43 1007.3
20260901165602 20 124 1.6 8.0 0.00 0.00 0.00 43 1007.3
20260901164819 20 156 1.6 8.0 0.00 0.00 0.00 44 1007.3
20260901164318 19 140 1.6 9.7 0.00 0.00 0.00 44 1007.4
20260901163818 19 126 1.6 9.7 0.00 0.00 0.00 44 1007.5
20260901163318 18 130 1.6 9.7 0.00 0.00 0.00 45 1007.4
20260901162817 18 148 1.6 9.7 0.00 0.00 0.00 46 1007.4
20260901162320 18 140 1.6 9.7 0.00 0.00 0.00 46 1007.4
20260901161818 18 119 1.6 9.7 0.00 0.00 0.00 47 1007.4
20260901161318 17 123 1.6 9.7 0.00 0.00 0.00 47 1007.5
20260901161058 17 112 1.6 9.7 0.00 0.00 0.00 49 1007.5
20260901160317 16 142 1.6 4.8 0.00 0.00 0.00 50 1007.7
20260901155815 16 143 1.6 6.4 0.00 0.00 0.00 50 1007.7
20260901155317 16 142 1.6 9.7 0.00 0.00 0.00 51 1007.8
20260901154813 15 140 1.6 9.7 0.00 0.00 0.00 51 1007.8
20260901154315 15 144 1.6 8.0 0.00 0.00 0.00 52 1007.8
20260901153817 15 142 3.2 6.4 0.00 0.00 0.00 52 1007.8
20260901153314 14 138 3.2 9.7 0.00 0.00 0.00 53 1007.9
20260901152814 14 148 1.6 9.7 0.00 0.00 0.00 54 1007.9
20260901152313 13 150 1.6 9.7 0.00 0.00 0.00 55 1008.0
20260901151816 13 162 3.2 9.7 0.00 0.00 0.00 56 1008.0
20260901151315 13 150 3.2 11.3 0.00 0.00 0.00 56 1008.0
20260901150810 13 150 4.8 12.9 0.00 0.00 0.00 56 1008.0
20260901150302 13 153 4.8 12.9 0.00 0.00 0.00 57 1007.9
20260901145758 12 144 6.4 12.9 0.00 0.00 0.00 57 1007.9
20260901145251 12 145 6.4 12.9 0.00 0.00 0.00 58 1007.8
20260901145010 12 144 6.4 11.3 0.00 0.00 0.00 59 1007.7
20260901144239 11 144 4.8 12.9 0.00 0.00 0.00 60 1007.4
20260901143732 11 155 4.8 12.9 0.00 0.00 0.00 61 1007.4
20260901143226 11 141 6.4 11.3 0.00 0.00 0.00 61 1007.3
20260901142721 11 137 6.4 11.3 0.00 0.00 0.00 62 1007.3
20260901142215 11 138 4.8 9.7 0.00 0.00 0.00 62 1007.3
20260901141709 11 143 4.8 9.7 0.00 0.00 0.00 62 1007.3
20260901141202 11 140 1.6 6.4 0.00 0.00 0.00 62 1007.2
20260901140659 11 144 0.0 3.2 0.00 0.00 0.00 62 1007.1
20260901140151 11 144 1.6 6.4 0.00 0.00 0.00 62 1007.0
20260901135644 11 144 3.2 6.4 0.00 0.00 0.00 62 1007.1
20260901135145 11 148 3.2 6.4 0.00 0.00 0.00 62 1007.0
20260901134632 11 144 3.2 8.0 0.00 0.00 0.00 61 1006.9
20260901134129 11 145 3.2 8.0 0.00 0.00 0.00 61 1007.0
20260901133627 11 145 1.6 6.4 0.00 0.00 0.00 61 1006.9
20260901133349 11 146 1.6 4.8 0.00 0.00 0.00 61 1006.9
20260901132627 11 150 1.6 3.2 0.00 0.00 0.00 61 1007.0
20260901132128 11 150 0.0 3.2 0.00 0.00 0.00 61 1007.0
20260901131627 11 150 0.0 3.2 0.00 0.00 0.00 61 1006.9
20260901131125 12 150 0.0 3.2 0.00 0.00 0.00 61 1007.0
20260901130623 12 151 0.0 3.2 0.00 0.00 0.00 60 1006.9
20260901130122 12 150 0.0 3.2 0.00 0.00 0.00 60 1007.0
20260901125620 12 150 1.6 8.0 0.00 0.00 0.00 60 1006.9
20260901125119 12 150 1.6 8.0 0.00 0.00 0.00 59 1006.8
20260901124633 12 150 3.2 8.0 0.00 0.00 0.00 60 1006.8
20260901124120 12 153 3.2 8.0 0.00 0.00 0.00 60 1006.8
20260901123619 12 163 3.2 6.4 0.00 0.00 0.00 59 1006.8
20260901123348 12 171 1.6 6.4 0.00 0.00 0.00 59 1006.9
20260901122619 12 226 1.6 4.8 0.00 0.00 0.00 58 1006.9
20260901122120 12 234 0.0 4.8 0.00 0.00 0.00 57 1006.8
20260901121847 13 259 0.0 1.6 0.00 0.00 0.00 58 1006.9
20260901121113 13 259 0.0 1.6 0.00 0.00 0.00 57 1006.9
20260901120610 13 259 0.0 1.6 0.00 0.00 0.00 58 1006.9
20260901115555 13 259 0.0 0.0 0.00 0.00 0.00 57 1006.9
20260901115048 13 259 0.0 0.0 0.00 0.00 0.00 57 1007.0
20260901114542 13 259 0.0 0.0 0.00 0.00 0.00 56 1007.0
20260901114037 13 259 0.0 0.0 0.00 0.00 0.00 56 1007.0
20260901113537 13 259 0.0 0.0 0.00 0.00 0.00 56 1007.0
20260901113037 13 259 0.0 0.0 0.00 0.00 0.00 56 1006.9
20260901112537 13 259 0.0 0.0 0.00 0.00 0.00 56 1007.0
20260901112306 13 259 0.0 0.0 0.00 0.00 0.00 56 1006.8
20260901111535 13 259 0.0 0.0 0.00 0.00 0.00 54 1006.8
20260901111041 13 259 0.0 0.0 0.00 0.00 0.00 55 1006.9
20260901110533 13 259 0.0 0.0 0.00 0.00 0.00 54 1006.9
20260901110033 13 259 0.0 0.0 0.00 0.00 0.00 53 1006.9
20260901105533 14 259 0.0 0.0 0.00 0.00 0.00 52 1006.9
20260901105034 14 259 0.0 0.0 0.00 0.00 0.00 51 1006.9
20260901104533 15 259 0.0 0.0 0.00 0.00 0.00 51 1007.0
20260901104033 15 259 0.0 0.0 0.00 0.00 0.00 51 1007.0
20260901103532 15 259 0.0 1.6 0.00 0.00 0.00 51 1007.0
20260901103033 15 259 0.0 1.6 0.00 0.00 0.00 51 1007.0
20260901102532 15 259 0.0 0.0 0.00 0.00 0.00 50 1007.1
20260901102033 15 259 0.0 1.6 0.00 0.00 0.00 50 1007.0
20260901101534 15 259 0.0 1.6 0.00 0.00 0.00 49 1007.0
20260901101032 15 259 0.0 0.0 0.00 0.00 0.00 49 1007.0
20260901100532 15 259 0.0 1.6 0.00 0.00 0.00 49 1007.0
20260901100032 16 259 0.0 4.8 0.00 0.00 0.00 49 1007.1
20260901095533 16 259 1.6 4.8 0.00 0.00 0.00 48 1007.1
20260901095031 16 259 1.6 4.8 0.00 0.00 0.00 48 1007.1
20260901094755 15 263 1.6 4.8 0.00 0.00 0.00 48 1007.2
20260901094029 15 263 1.6 4.8 0.00 0.00 0.00 48 1007.2
20260901093526 15 266 1.6 4.8 0.00 0.00 0.00 47 1007.1
20260901093026 15 275 0.0 3.2 0.00 0.00 0.00 47 1007.1
20260901092525 16 277 0.0 3.2 0.00 0.00 0.00 47 1007.2
20260901092023 15 278 0.0 3.2 0.00 0.00 0.00 47 1007.2
20260901091523 16 281 0.0 3.2 0.00 0.00 0.00 47 1007.3
20260901091023 16 281 0.0 3.2 0.00 0.00 0.00 47 1007.2
20260901090523 16 281 0.0 3.2 0.00 0.00 0.00 47 1007.2
20260901090016 16 281 0.0 4.8 0.00 0.00 0.00 47 1007.4
20260901085517 16 281 0.0 4.8 0.00 0.00 0.00 46 1007.3
20260901085240 16 284 0.0 3.2 0.00 0.00 0.00 46 1007.3
20260901084738 16 284 0.0 4.8 0.00 0.00 0.00 45 1007.2
20260901084018 16 284 0.0 4.8 0.00 0.00 0.00 45 1007.3
20260901083514 16 285 0.0 4.8 0.00 0.00 0.00 44 1007.4
20260901083243 16 298 0.0 3.2 0.00 0.00 0.00 45 1007.4
20260901082509 16 298 0.0 3.2 0.00 0.00 0.00 45 1007.3
20260901082002 16 298 0.0 3.2 0.00 0.00 0.00 44 1007.3
20260901081456 16 298 0.0 3.2 0.00 0.00 0.00 44 1007.4
20260901080949 16 298 0.0 3.2 0.00 0.00 0.00 43 1007.3
20260901080444 16 298 1.6 3.2 0.00 0.00 0.00 42 1007.3
20260901075938 16 299 1.6 3.2 0.00 0.00 0.00 41 1007.3
20260901075433 16 301 1.6 3.2 0.00 0.00 0.00 41 1007.3
20260901074926 16 301 1.6 3.2 0.00 0.00 0.00 40 1007.3
20260901074912 16 301 1.6 3.2 0.00 0.00 0.00 39 1007.3
20260901073915 16 301 0.0 1.6 0.00 0.00 0.00 39 1007.4
20260901073636 16 301 0.0 1.6 0.00 0.00 0.00 39 1007.4
20260901072902 16 301 0.0 3.2 0.00 0.00 0.00 39 1007.4
20260901072356 16 301 0.0 3.2 0.00 0.00 0.00 39 1007.5
20260901071850 16 302 0.0 1.6 0.00 0.00 0.00 38 1007.5
20260901071344 16 302 0.0 1.6 0.00 0.00 0.00 38 1007.4
20260901070839 16 302 0.0 3.2 0.00 0.00 0.00 38 1007.4
20260901070550 17 302 1.6 3.2 0.00 0.00 0.00 37 1007.4
20260901065827 17 302 1.6 4.8 0.00 0.00 0.00 36 1007.3
20260901065816 17 302 1.6 6.4 0.00 0.00 0.00 36 1007.3
20260901064816 18 300 3.2 6.4 0.00 0.00 0.00 36 1007.3
20260901064310 18 302 3.2 4.8 0.00 0.00 0.00 35 1007.3
20260901063804 18 297 1.6 4.8 0.00 0.00 0.00 35 1007.5
20260901063257 18 296 1.6 6.4 0.00 0.00 0.00 35 1007.5
20260901062752 18 296 3.2 4.8 0.00 0.00 0.00 35 1007.5
20260901062246 18 296 1.6 6.4 0.00 0.00 0.00 35 1007.7
20260901061740 18 285 1.6 6.4 0.00 0.00 0.00 35 1007.7
20260901061235 18 284 1.6 6.4 0.00 0.00 0.00 35 1007.8
20260901060727 18 282 1.6 6.4 0.00 0.00 0.00 35 1007.8
20260901060222 18 285 3.2 8.0 0.00 0.00 0.00 35 1007.7
20260901055716 18 288 3.2 8.0 0.00 0.00 0.00 35 1007.7
20260901055210 18 297 3.2 6.4 0.00 0.00 0.00 35 1007.7
20260901054704 18 298 3.2 6.4 0.00 0.00 0.00 34 1007.8
20260901054430 18 298 3.2 8.0 0.00 0.00 0.00 34 1007.7
20260901053930 18 288 3.2 8.0 0.00 0.00 0.00 34 1007.8
20260901053202 18 298 3.2 6.4 0.00 0.00 0.00 34 1007.7
20260901052702 19 296 3.2 6.4 0.00 0.00 0.00 34 1007.8
20260901052205 19 298 3.2 6.4 0.00 0.00 0.00 34 1007.8
20260901052140 19 295 3.2 6.4 0.00 0.00 0.00 34 1007.8
20260901050700 20 319 1.6 9.7 0.00 0.00 0.00 34 1007.7
20260901050201 20 329 3.2 9.7 0.00 0.00 0.00 34 1007.8
20260901045701 20 355 3.2 9.7 0.00 0.00 0.00 33 1007.8
20260901045200 21 327 4.8 14.5 0.00 0.00 0.00 33 1007.7
20260901044909 21 355 4.8 14.5 0.00 0.00 0.00 33 1007.7
20260901043701 21 313 4.8 12.9 0.00 0.00 0.00 32 1007.7
20260901043423 21 350 3.2 9.7 0.00 0.00 0.00 32 1007.7
20260901042659 21 343 3.2 9.7 0.00 0.00 0.00 32 1007.7
20260901042203 21 345 3.2 9.7 0.00 0.00 0.00 32 1007.5
20260901041659 22 0 4.8 17.7 0.00 0.00 0.00 31 1007.5
20260901041159 22 355 6.4 17.7 0.00 0.00 0.00 31 1007.4
20260901040700 22 346 6.4 17.7 0.00 0.00 0.00 31 1007.2
20260901040159 22 317 6.4 16.1 0.00 0.00 0.00 31 1007.2
20260901040150 22 355 6.4 16.1 0.00 0.00 0.00 31 1007.1
20260901035158 22 343 8.0 19.3 0.00 0.00 0.00 30 1007.0
20260901034656 22 347 8.0 19.3 0.00 0.00 0.00 31 1007.0
20260901034427 22 338 6.4 17.7 0.00 0.00 0.00 30 1007.0
20260901033655 22 344 6.4 16.1 0.00 0.00 0.00 30 1006.9
20260901033153 22 355 6.4 16.1 0.00 0.00 0.00 30 1006.9
20260901032654 23 53 4.8 16.1 0.00 0.00 0.00 30 1006.8
20260901032154 23 341 6.4 17.7 0.00 0.00 0.00 29 1006.7
20260901031656 23 0 6.4 17.7 0.00 0.00 0.00 29 1006.7
20260901031151 23 355 6.4 17.7 0.00 0.00 0.00 29 1006.6
20260901030651 23 351 6.4 17.7 0.00 0.00 0.00 29 1006.6
20260901030151 23 336 8.0 19.3 0.00 0.00 0.00 29 1006.6
20260901025652 23 328 6.4 19.3 0.00 0.00 0.00 29 1006.5
20260901025152 24 331 6.4 19.3 0.00 0.00 0.00 28 1006.6
20260901025142 24 355 6.4 19.3 0.00 0.00 0.00 28 1006.4
20260901024145 24 23 6.4 17.7 0.00 0.00 0.00 27 1006.2
20260901023638 25 337 6.4 22.5 0.00 0.00 0.00 27 1006.2
20260901023133 25 355 6.4 22.5 0.00 0.00 0.00 26 1006.1
20260901022855 25 350 6.4 22.5 0.00 0.00 0.00 26 1006.0
20260901022124 26 331 8.0 22.5 0.00 0.00 0.00 26 1005.9
20260901021615 26 342 8.0 22.5 0.00 0.00 0.00 25 1006.0
20260901021109 26 0 9.7 22.5 0.00 0.00 0.00 25 1005.9
20260901021058 26 12 9.7 22.5 0.00 0.00 0.00 24 1005.8
20260901020330 26 19 11.3 24.1 0.00 0.00 0.00 24 1005.8
20260901015815 27 0 11.3 24.1 0.00 0.00 0.00 23 1005.8
20260901015045 27 337 9.7 19.3 0.00 0.00 0.00 23 1005.8
20260901014812 27 0 9.7 22.5 0.00 0.00 0.00 23 1005.8
20260901014033 27 30 9.7 20.9 0.00 0.00 0.00 22 1005.7
20260901013532 28 5 8.0 22.5 0.00 0.00 0.00 22 1005.6
20260901013022 28 46 6.4 24.1 0.00 0.00 0.00 21 1005.6
20260901012514 28 40 8.0 24.1 0.00 0.00 0.00 21 1005.7
20260901012009 28 335 8.0 20.9 0.00 0.00 0.00 20 1005.7
20260901011503 29 50 6.4 16.1 0.00 0.00 0.00 20 1005.8
20260901010957 29 338 6.4 20.9 0.00 0.00 0.00 20 1005.6
20260901010451 29 34 6.4 20.9 0.00 0.00 0.00 20 1005.6
20260901005945 29 310 9.7 22.5 0.00 0.00 0.00 20 1005.7
20260901005439 28 355 11.3 22.5 0.00 0.00 0.00 19 1005.7
20260901004933 29 0 11.3 22.5 0.00 0.00 0.00 19 1005.8
20260901004427 29 5 9.7 22.5 0.00 0.00 0.00 19 1005.8
20260901003923 29 5 9.7 29.0 0.00 0.00 0.00 20 1006.0
20260901003415 29 345 9.7 29.0 0.00 0.00 0.00 19 1006.0
20260901003135 29 319 11.3 24.1 0.00 0.00 0.00 19 1005.9
20260901002404 29 355 11.3 22.5 0.00 0.00 0.00 20 1005.9
20260901001904 29 17 9.7 20.9 0.00 0.00 0.00 19 1005.8
20260901001401 29 347 11.3 24.1 0.00 0.00 0.00 20 1005.9
20260901000859 29 346 11.3 24.1 0.00 0.00 0.00 20 1005.9
20260901000624 28 305 9.7 22.5 0.00 0.00 0.00 20 1006.0
20260831235857 28 324 11.3 22.5 0.00 0.00 0.00 20 1005.9
20260831235357 28 336 11.3 22.5 0.00 0.00 0.00 20 1006.0
20260831234858 28 346 11.3 22.5 0.00 0.00 0.00 20 1006.0
20260831234357 28 5 9.7 20.9 0.00 0.00 0.00 20 1006.0
20260831233857 29 350 8.0 22.5 0.00 0.00 0.00 19 1006.1
20260831233617 29 346 9.7 22.5 0.00 0.00 0.00 19 1006.2
20260831232857 29 333 9.7 20.9 0.00 0.00 0.00 20 1006.1
20260831232357 30 313 8.0 20.9 0.00 0.00 0.00 19 1006.1
20260831232123 29 20 9.7 19.3 0.00 0.00 0.00 19 1006.2
20260831231357 30 330 9.7 20.9 0.00 0.00 0.00 19 1006.2
20260831230856 30 55 8.0 20.9 0.00 0.00 0.00 20 1006.4
20260831230357 30 336 6.4 16.1 0.00 0.00 0.00 19 1006.4
20260831225857 30 28 4.8 16.1 0.00 0.00 0.00 20 1006.5
20260831225624 30 39 6.4 19.3 0.00 0.00 0.00 19 1006.5
20260831224857 29 50 6.4 19.3 0.00 0.00 0.00 20 1006.6
20260831224357 29 21 6.4 16.1 0.00 0.00 0.00 20 1006.6
20260831223856 29 324 6.4 17.7 0.00 0.00 0.00 21 1006.6
20260831223356 29 40 6.4 19.3 0.00 0.00 0.00 20 1006.8
20260831222856 29 341 6.4 19.3 0.00 0.00 0.00 20 1006.9
20260831222357 29 9 4.8 14.5 0.00 0.00 0.00 20 1007.0
20260831221857 28 35 6.4 16.1 0.00 0.00 0.00 21 1007.0
20260831221356 28 350 6.4 17.7 0.00 0.00 0.00 21 1007.0
20260831220857 28 0 8.0 17.7 0.00 0.00 0.00 21 1007.2
20260831220357 28 23 8.0 19.3 0.00 0.00 0.00 22 1007.2
20260831220124 28 355 6.4 19.3 0.00 0.00 0.00 21 1007.4
20260831215356 28 5 4.8 14.5 0.00 0.00 0.00 22 1007.4
20260831214859 28 22 6.4 19.3 0.00 0.00 0.00 23 1007.7
20260831214357 28 355 6.4 19.3 0.00 0.00 0.00 22 1007.7
20260831213856 27 5 6.4 16.1 0.00 0.00 0.00 23 1007.8
20260831213356 27 324 8.0 16.1 0.00 0.00 0.00 22 1007.7
20260831212857 27 54 8.0 17.7 0.00 0.00 0.00 22 1007.9
20260831212356 27 0 6.4 17.7 0.00 0.00 0.00 22 1008.0
20260831211849 27 59 4.8 14.5 0.00 0.00 0.00 22 1008.0
20260831211341 27 44 4.8 14.5 0.00 0.00 0.00 23 1008.1
20260831210836 27 355 6.4 22.5 0.00 0.00 0.00 23 1008.1
20260831210551 26 31 8.0 22.5 0.00 0.00 0.00 24 1008.1
20260831210048 26 330 8.0 19.3 0.00 0.00 0.00 23 1008.2
20260831205318 26 13 8.0 19.3 0.00 0.00 0.00 24 1008.3
20260831204812 26 34 6.4 16.1 0.00 0.00 0.00 25 1008.4
20260831204531 26 350 6.4 16.1 0.00 0.00 0.00 25 1008.5
20260831203801 26 28 8.0 17.7 0.00 0.00 0.00 25 1008.5
20260831203255 26 15 6.4 17.7 0.00 0.00 0.00 25 1008.5
20260831202748 26 19 6.4 17.7 0.00 0.00 0.00 26 1008.5
20260831202242 26 340 4.8 14.5 0.00 0.00 0.00 26 1008.7
20260831202008 25 5 3.2 12.9 0.00 0.00 0.00 26 1008.7
20260831201230 25 42 4.8 12.9 0.00 0.00 0.00 27 1009.0
20260831200729 25 45 4.8 12.9 0.00 0.00 0.00 27 1009.2
20260831200218 25 348 4.8 12.9 0.00 0.00 0.00 27 1009.3
20260831195712 25 311 4.8 11.3 0.00 0.00 0.00 28 1009.4
20260831195206 24 29 4.8 12.9 0.00 0.00 0.00 29 1009.5
20260831194924 24 349 4.8 12.9 0.00 0.00 0.00 28 1009.6
20260831194154 24 13 3.2 12.9 0.00 0.00 0.00 29 1009.7
20260831193911 24 25 3.2 11.3 0.00 0.00 0.00 29 1009.7
20260831193141 23 11 4.8 12.9 0.00 0.00 0.00 28 1009.8
20260831192636 23 36 4.8 12.9 0.00 0.00 0.00 29 1009.8
20260831192130 23 51 3.2 12.9 0.00 0.00 0.00 30 1009.9
20260831192119 23 15 3.2 12.9 0.00 0.00 0.00 29 1009.9
20260831191118 23 17 3.2 12.9 0.00 0.00 0.00 30 1010.1
20260831190612 23 34 3.2 8.0 0.00 0.00 0.00 28 1010.1
20260831190106 23 0 4.8 12.9 0.00 0.00 0.00 30 1010.3
20260831185600 22 311 4.8 12.9 0.00 0.00 0.00 30 1010.4
20260831185054 22 349 4.8 11.3 0.00 0.00 0.00 30 1010.5
20260831184548 22 257 4.8 11.3 0.00 0.00 0.00 30 1010.6